Weather History for KSUN - January, 2013

Change the Weather History Date:

Saturday, January 5, 2013

  Actual Average Record
Temperature  
Mean Temperature 14 °F -  
Max Temperature 26 °F 34 °F 42 °F (2003)
Min Temperature 1 °F 15 °F -5 °F (2004)
Degree Days  
Heating Degree Days 52    
Moisture  
Dew Point 8 °F    
Average Humidity 78    
Maximum Humidity 92    
Minimum Humidity 55    
Precipitation  
Precipitation 0.00 in - - ()
Sea Level Pressure  
Sea Level Pressure 30.28 in    
Wind  
Wind Speed 7 mph (NW)    
Max Wind Speed 10 mph    
Max Gust Speed -    
Visibility 10 miles    
Events      
Averages and records for this station are not official NWS values.
T = Trace of Precipitation, MM = Missing Value Source: NWS Daily Summary

Daily Weather History Graph

Daily Weather History Graph

Search for Another Location

Airport or City:

Trip Planner

Search our weather history database for the weather conditions in past years. The results will help you decide how hot, cold, wet, or windy it might be!

Date:

Astronomy

Jan. 05, 2013 Rise Set
Actual Time 8:10 AM MST 5:15 PM MST
Civil Twilight 7:37 AM MST 5:48 PM MST
Nautical Twilight 7:01 AM MST 6:23 PM MST
Astronomical Twilight 6:27 AM MST 6:58 PM MST
Moon 1:14 AM MST (1/5) 12:13 PM MST (1/5)
Length of Visible Light 10h 10m
Length of Day
9h 05m
Last Quarter, 43% of the Moon is Illuminated
Jan 5
Last Quarter
Jan 11
New
Jan 18
First Quarter
Jan 26
Full
Feb 3
Last Quarter

Hourly Weather History & Observations

Time (MST) Temp. Windchill Dew Point Humidity Pressure Visibility Wind Dir Wind Speed Gust Speed Precip Events Conditions
12:15 AM 8.6 °F -1.3 °F 3.2 °F 79% 30.31 in 10.0 mi North 5.8 mph - N/A   Clear
12:35 AM 6.8 °F -5.9 °F 3.2 °F 85% 30.32 in 10.0 mi NNW 8.1 mph - N/A   Clear
12:55 AM 6.8 °F -4.8 °F 3.2 °F 85% 30.31 in 10.0 mi NW 6.9 mph - N/A   Clear
1:15 AM 6.8 °F -3.5 °F 3.2 °F 85% 30.31 in 10.0 mi NNW 5.8 mph - N/A   Clear
1:35 AM 8.6 °F -2.6 °F 5.0 °F 85% 30.31 in 10.0 mi NW 6.9 mph - N/A   Clear
1:55 AM 6.8 °F -4.8 °F 3.2 °F 85% 30.30 in 10.0 mi NNW 6.9 mph - N/A   Clear
2:15 AM 6.8 °F -3.5 °F 3.2 °F 85% 30.30 in 10.0 mi NNW 5.8 mph - N/A   Clear
2:35 AM 8.6 °F -2.6 °F 5.0 °F 85% 30.31 in 10.0 mi NW 6.9 mph - N/A   Clear
2:55 AM 6.8 °F -5.9 °F 3.2 °F 85% 30.32 in 10.0 mi NNW 8.1 mph - N/A   Clear
3:15 AM 5.0 °F -8.1 °F 3.2 °F 92% 30.32 in 10.0 mi NNW 8.1 mph - N/A   Clear
3:35 AM 6.8 °F -2.0 °F 3.2 °F 85% 30.32 in 10.0 mi NNW 4.6 mph - N/A   Clear
3:55 AM 6.8 °F -3.5 °F 3.2 °F 85% 30.33 in 10.0 mi NW 5.8 mph - N/A   Clear
4:15 AM 5.0 °F -6.9 °F 1.4 °F 85% 30.32 in 10.0 mi NNW 6.9 mph - N/A   Clear
4:55 AM 8.6 °F -4.7 °F 3.2 °F 79% 30.32 in 10.0 mi NW 9.2 mph - N/A   Clear
5:35 AM 5.0 °F -5.6 °F 1.4 °F 85% 30.32 in 10.0 mi NNW 5.8 mph - N/A   Clear
5:55 AM 5.0 °F -4.1 °F 3.2 °F 92% 30.32 in 10.0 mi North 4.6 mph - N/A   Clear
6:50 AM 3.2 °F -6.2 °F 1.4 °F 92% 30.33 in 10.0 mi NNW 4.6 mph - N/A   Clear
7:47 AM 1.4 °F -14.5 °F -0.4 °F 92% 30.34 in 10.0 mi NW 10.4 mph - N/A   Clear
8:47 AM 3.2 °F -12.2 °F -0.4 °F 85% 30.35 in 10.0 mi NW 10.4 mph - N/A   Clear
9:47 AM 8.6 °F -5.5 °F 5.0 °F 85% 30.36 in 10.0 mi WNW 10.4 mph - N/A   Partly Cloudy
10:47 AM 15.8 °F 4.2 °F 8.6 °F 73% 30.36 in 10.0 mi WNW 9.2 mph - N/A   Partly Cloudy
11:47 AM 21.2 °F 11.7 °F 12.2 °F 68% 30.33 in 10.0 mi NW 8.1 mph - N/A   Partly Cloudy
12:55 PM 24.8 °F - 14.0 °F 64% 30.31 in 10.0 mi Calm Calm - N/A   Partly Cloudy
1:47 PM 26.6 °F 20.0 °F 15.8 °F 64% 30.29 in 10.0 mi ESE 5.8 mph - N/A   Partly Cloudy
2:50 PM 26.6 °F 21.2 °F 14.0 °F 59% 30.28 in 10.0 mi SE 4.6 mph - N/A   Partly Cloudy
3:47 PM 24.8 °F 20.5 °F 12.2 °F 59% 30.27 in 10.0 mi ESE 3.5 mph - N/A   Scattered Clouds
4:47 PM 26.6 °F 22.6 °F 12.2 °F 55% 30.26 in 10.0 mi WNW 3.5 mph - N/A   Scattered Clouds
5:50 PM 24.8 °F 19.1 °F 14.0 °F 64% 30.25 in 10.0 mi WNW 4.6 mph - N/A   Partly Cloudy
6:47 PM 23.0 °F 17.0 °F 15.8 °F 74% 30.25 in 10.0 mi WNW 4.6 mph - N/A   Clear
7:47 PM 21.2 °F 11.7 °F 14.0 °F 74% 30.23 in 10.0 mi WNW 8.1 mph - N/A   Clear
8:47 PM 21.2 °F 11.7 °F 12.2 °F 68% 30.22 in 10.0 mi West 8.1 mph - N/A   Clear
9:47 PM 19.4 °F 10.4 °F 12.2 °F 74% 30.21 in 10.0 mi WNW 6.9 mph - N/A   Clear
10:15 PM 21.2 °F 10.1 °F 12.2 °F 68% 30.21 in 10.0 mi NW 10.4 mph - N/A   Clear
10:35 PM 19.4 °F 9.5 °F 12.2 °F 74% 30.21 in 10.0 mi NW 8.1 mph - N/A   Clear
10:47 PM 19.4 °F 7.9 °F 12.2 °F 74% 30.21 in 10.0 mi WNW 10.4 mph - N/A   Clear
10:55 PM 19.4 °F 8.6 °F 12.2 °F 74% 30.21 in 10.0 mi NW 9.2 mph - N/A   Clear
11:15 PM 19.4 °F 8.6 °F 12.2 °F 74% 30.19 in 10.0 mi NW 9.2 mph - N/A   Clear
11:35 PM 19.4 °F 9.5 °F 12.2 °F 74% 30.19 in 10.0 mi NNW 8.1 mph - N/A   Clear
11:55 PM 19.4 °F 11.5 °F 14.0 °F 80% 30.18 in 10.0 mi NW 5.8 mph - N/A   Clear